This is the latest recevied weather packets stored in our database for station/object IT9FBN-3. If no packets are shown the sender has not sent any weather packets the latest 1 day(s).
| Time | Temp. | Humidity | Pressure | Rain* | Wind** | Luminosity | Snow |
|---|---|---|---|---|---|---|---|
| 1778091903 | 19.44° C | 63% | 1012 hPa | 0 mm | - | - | - |
| 1778090703 | 20° C | 52% | 1012.5 hPa | 0 mm | - | - | - |
| 1778086503 | 21.11° C | 54% | 1012.8 hPa | 0 mm | - | - | - |
| 1778084103 | 21.11° C | 51% | 1012.9 hPa | 0 mm | - | - | - |
| 1778083503 | 21.11° C | 53% | 1012.7 hPa | 0 mm | - | - | - |
| 1778082903 | 21.11° C | 52% | 1012.5 hPa | 0 mm | - | - | - |
| 1778082603 | 21.11° C | 51% | 1012.7 hPa | 0 mm | - | - | - |
| 1778081703 | 21.11° C | 54% | 1012.7 hPa | 0 mm | - | - | - |
| 1778081103 | 21.11° C | 53% | 1012.6 hPa | 0 mm | - | - | - |
| 1778080503 | 21.11° C | 54% | 1012.7 hPa | 0 mm | - | - | - |
| 1778079903 | 21.11° C | 55% | 1012.9 hPa | 0 mm | - | - | - |
| 1778078103 | 21.67° C | 56% | 1014.1 hPa | 0 mm | - | - | - |
| 1778076903 | 21.67° C | 55% | 1014.5 hPa | 0 mm | - | - | - |
| 1778076003 | 21.67° C | 55% | 1014.5 hPa | 0 mm | - | - | - |
| 1778075703 | 21.67° C | 56% | 1014.5 hPa | 0 mm | - | - | - |
| 1778075403 | 21.11° C | 57% | 1014.5 hPa | 0 mm | - | - | - |
| 1778075103 | 21.67° C | 57% | 1014.5 hPa | 0 mm | - | - | - |
| 1778074503 | 21.67° C | 53% | 1014.6 hPa | 0 mm | - | - | - |
| 1778073903 | 21.67° C | 51% | 1014.5 hPa | 0 mm | - | - | - |
| 1778071503 | 21.11° C | 51% | 1014.7 hPa | 0 mm | - | - | - |
| 1778071203 | 21.11° C | 52% | 1014.8 hPa | 0 mm | - | - | - |
| 1778070903 | 21.11° C | 55% | 1014.9 hPa | 0 mm | - | - | - |
| 1778068503 | 21.67° C | 50% | 1014.9 hPa | 0 mm | - | - | - |
| 1778068203 | 21.67° C | 43% | 1015.1 hPa | 0 mm | - | - | - |
| 1778058303 | 20° C | 43% | 1014.8 hPa | 0 mm | - | - | - |
* Rain latest hour (hover to see other rain measurements)
** Current wind speed in m/s (hover to see current wind gust speed)